Theta_e
288 288 288 287 287 286 286 285 285 285 285 285 285 285 285 286 285 285 285 284 285 285
288 287 286 286 286 286 285 284 284 284 284 284 284 283 283 284 283 284 284 284 284 284
287 287 286 286 285 285 284 283 283 283 283 282 282 282 282 282 283 282 283 283 282 282
286 286 286 285 284 284 283 282 281 281 281 281 280 280 280 280 281 280 281 281 281 281
286 285 285 284 283 282 281 281 280 279 279 279 279 279 278 278 279 278 278 279 279 279
285 285 284 283 282 281 280 279 278 278 277 277 277 277 277 278 278 278 278 278 277 277
285 285 284 282 280 279 278 277 277 277 276 275 275 276 276 277 277 278 277 277 277 276
285 284 282 280 278 277 276 276 275 275 274 274 274 274 276 276 277 276 276 276 276 276
283 281 280 278 276 275 274 274 274 273 273 272 273 273 275 276 275 275 274 274 274 274
281 279 278 276 274 273 273 272 272 272 271 271 272 273 275 275 274 274 274 273 273 273
279 277 275 274 273 272 272 271 271 271 270 271 271 272 273 274 274 274 273 273 273 272
277 274 273 272 271 271 271 270 270 270 270 268 269 271 272 273 273 273 272 273 273 273
275 272 271 271 270 271 270 269 269 269 269 268 267 269 271 272 273 272 273 273 274 275
272 270 270 269 269 268 268 267 267 266 267 267 267 268 271 273 273 273 273 273 274 274
Wind_Speed
10 7 8 8 7 6 6 6 7 7 7 8 8 8 7 5 6 6 6 8 7 6
9 9 9 9 8 6 5 5 6 6 6 7 7 7 7 5 7 7 7 7 7 7
9 8 8 8 8 7 6 5 5 5 5 5 6 7 7 6 6 7 6 6 9 9
8 8 7 7 7 6 5 4 4 5 5 5 6 6 6 6 6 8 8 9 9 11
9 8 7 7 6 5 5 4 4 4 4 5 5 6 7 7 7 9 10 10 10 11
9 8 7 7 6 5 4 3 3 2 3 4 5 6 6 8 9 9 10 10 11 12
9 8 7 6 5 4 3 2 1 1 3 4 5 6 7 8 9 10 10 11 11 12
9 8 7 7 5 4 3 1 0 2 3 4 5 4 8 9 10 11 12 11 11 12
10 9 8 7 5 4 3 1 1 2 3 5 4 8 11 11 10 11 11 12 12 12
9 9 8 7 5 4 3 2 3 4 4 5 5 8 12 14 10 11 11 12 12 12
9 8 8 7 5 4 4 4 4 4 5 5 6 10 13 14 11 10 11 12 13 14
10 8 8 6 5 4 4 4 4 4 4 6 7 11 13 12 10 10 11 11 13 14
9 8 8 7 6 4 4 5 4 5 6 8 8 11 12 11 8 10 10 12 13 17
8 8 7 6 4 4 4 5 5 7 7 8 8 9 12 13 9 9 9 10 10 10
Wind_Direction
109 104 98 93 90 83 78 64 51 46 41 33 25 19 12 9 4 355 350 342 337 324
119 116 113 108 102 97 89 80 58 44 36 28 18 9 359 360 353 345 341 336 333 322
132 129 122 113 106 104 98 82 63 43 31 20 12 3 352 348 343 337 335 329 323 320
147 137 127 121 116 113 108 94 67 40 17 7 1 353 341 339 334 331 326 323 320 314
159 151 144 136 133 131 123 103 62 35 18 2 350 341 337 334 334 327 324 323 319 314
173 166 160 152 144 138 128 98 74 35 10 349 338 331 329 329 324 323 319 321 318 316
183 179 168 153 151 146 133 133 92 29 353 339 328 319 327 323 321 316 315 314 312 311
184 176 170 163 160 157 153 131 19 331 336 327 316 328 327 322 317 313 312 310 307 304
184 176 178 170 166 176 170 189 280 287 297 306 304 315 312 313 309 306 304 305 307 305
181 183 183 175 176 187 202 241 260 264 279 285 296 303 310 313 302 301 302 303 302 303
181 185 182 182 190 194 212 235 255 271 279 293 300 305 308 306 298 295 295 296 296 295
179 178 183 190 200 206 225 245 260 257 272 281 288 295 299 304 298 292 292 292 288 290
177 170 175 186 196 207 221 250 260 266 267 265 273 285 294 299 291 294 297 296 291 285
168 167 175 177 192 207 231 251 255 265 266 268 268 276 287 290 290 290 298 297 300 299